Location: Igon
(43.1667°N, 0.2333°W)
Time: 21:59:04
(UTC+00:00)

Sich 1 - Pass Details

Date: 29 November 2020
Orbit: 593 x 626 km, 82.5° (Epoch: 21 January)

Event Time Altitude Azimuth Distance (km) Brightness Sun altitude
Rises 06:27:13 0° 196° (SSW) 2,891 6.6 -8.0°
Reaches altitude 10° 06:29:27 10° 200° (SSW) 1,992 5.7 -7.7°
Maximum altitude 06:33:49 60° 280° (W) 717 3.1 -6.9°
Drops below altitude 10° 06:38:14 10° 1° (N) 2,009 5.5 -6.2°
Sets 06:40:30 0° 5° (N) 2,920 6.3 -5.8°
